When you browse on this site, cookies collect data to enhance your experience and personalize the content and advertising you see.
Visit our Privacy Policy to learn more. By continuing to use the site, you agree to this use of cookies and data.
  • In Portugal
  • List of Countries
  • For 7 days
  • Water Temperature
  • Satellite Maps
  • Weather Map
  • Weather Widgets
  • user-avatar
    Login

    Hourly Weather Suszki

    Today, 21 March, Thursday

    Time Temperature Precipitation Wind Pressure Humidity
    00:00 +3°C° 0 mm 3 mps 755 mmHg 63%
    01:00 +3°C° 0 mm 3 mps 755 mmHg 62%
    02:00 +3°C° 0 mm 3 mps 755 mmHg 63%
    03:00 +3°C° 0 mm 3 mps 755 mmHg 64%
    04:00 +3°C° 0 mm 3 mps 755 mmHg 65%
    05:00 +3°C° 0 mm 3 mps 755 mmHg 66%
    06:00 +3°C° 0 mm 3 mps 755 mmHg 67%
    07:00 +4°C° 0 mm 3 mps 755 mmHg 69%
    08:00 +7°C° 0 mm 3 mps 755 mmHg 68%
    09:00 +9°C° 0 mm 3 mps 755 mmHg 67%
    10:00 +10°C° 0 mm 3 mps 756 mmHg 66%
    11:00 +12°C° 0 mm 3 mps 755 mmHg 63%
    12:00 +13°C° 0 mm 3 mps 755 mmHg 61%
    13:00 +14°C° 0 mm 3 mps 755 mmHg 59%
    14:00 +14°C° 0 mm 3 mps 755 mmHg 59%
    15:00 +14°C° 0 mm 3 mps 754 mmHg 59%
    16:00 +14°C° 0 mm 3 mps 754 mmHg 60%
    17:00 +14°C° 0 mm 2 mps 754 mmHg 67%
    18:00 +12°C° 0 mm 2 mps 754 mmHg 74%
    19:00 +11°C° 0 mm 1 mps 754 mmHg 81%
    20:00 +10°C° 0 mm 1 mps 754 mmHg 83%
    21:00 +10°C° 0 mm 1 mps 754 mmHg 85%
    22:00 +8°C° 0 mm 2 mps 754 mmHg 87%
    23:00 +8°C° 0 mm 2 mps 754 mmHg 88%

    Tomorrow, 22 March, Friday

    Time Temperature Precipitation Wind Pressure Humidity
    00:00 +8°C° 0 mm 2 mps 754 mmHg 89%
    01:00 +7°C° 0 mm 2 mps 754 mmHg 90%
    02:00 +7°C° 0 mm 2 mps 754 mmHg 90%
    03:00 +8°C° 0 mm 1 mps 754 mmHg 90%
    04:00 +8°C° 0 mm 1 mps 754 mmHg 90%
    05:00 +8°C° 0 mm 1 mps 754 mmHg 90%
    06:00 +8°C° 0 mm 1 mps 754 mmHg 89%
    07:00 +8°C° 0 mm 1 mps 754 mmHg 89%
    08:00 +10°C° 0 mm 1 mps 755 mmHg 82%
    09:00 +12°C° 0 mm 1 mps 755 mmHg 76%
    10:00 +14°C° 0 mm 1 mps 755 mmHg 69%
    11:00 +15°C° 0 mm 1 mps 755 mmHg 66%
    12:00 +16°C° 0 mm 1 mps 755 mmHg 62%
    13:00 +18°C° 0 mm 1 mps 754 mmHg 59%
    14:00 +18°C° 0 mm 1 mps 754 mmHg 58%
    15:00 +18°C° 0 mm 1 mps 753 mmHg 57%
    16:00 +18°C° 0 mm 1 mps 753 mmHg 56%
    17:00 +16°C° 0 mm 1 mps 753 mmHg 63%
    18:00 +14°C° 0 mm 2 mps 753 mmHg 70%
    19:00 +13°C° 0 mm 2 mps 752 mmHg 77%
    20:00 +12°C° 0 mm 2 mps 752 mmHg 79%
    21:00 +10°C° 0 mm 2 mps 752 mmHg 82%
    22:00 +10°C° 0 mm 2 mps 752 mmHg 85%
    23:00 +10°C° 0 mm 2 mps 752 mmHg 86%

    Day after tomorrow, 23 March, Saturday

    Time Temperature Precipitation Wind Pressure Humidity
    00:00 +9°C° 0 mm 2 mps 752 mmHg 87%
    01:00 +9°C° 0 mm 2 mps 752 mmHg 87%
    02:00 +9°C° 0 mm 2 mps 751 mmHg 87%
    03:00 +9°C° 0 mm 2 mps 751 mmHg 87%
    04:00 +8°C° 0 mm 2 mps 750 mmHg 87%
    05:00 +9°C° 0 mm 2 mps 750 mmHg 85%
    06:00 +9°C° 0 mm 2 mps 750 mmHg 84%
    07:00 +9°C° 0 mm 2 mps 750 mmHg 82%
    08:00 +13°C° 0 mm 2 mps 750 mmHg 73%
    09:00 +15°C° 0 mm 2 mps 750 mmHg 65%
    10:00 +17°C° 0 mm 3 mps 750 mmHg 56%
    11:00 +18°C° 0 mm 3 mps 750 mmHg 52%
    12:00 +19°C° 0 mm 3 mps 750 mmHg 49%
    13:00 +20°C° 0 mm 3 mps 749 mmHg 45%
    14:00 +19°C° 0 mm 3 mps 749 mmHg 46%
    15:00 +19°C° 0 mm 3 mps 749 mmHg 47%
    16:00 +19°C° 0 mm 3 mps 748 mmHg 48%
    17:00 +17°C° 0 mm 3 mps 749 mmHg 57%
    18:00 +16°C° 0 mm 3 mps 749 mmHg 65%
    19:00 +14°C° 0 mm 2 mps 749 mmHg 73%
    20:00 +13°C° 0 mm 2 mps 749 mmHg 78%
    21:00 +11°C° 0 mm 3 mps 750 mmHg 83%
    22:00 +10°C° 0 mm 3 mps 750 mmHg 87%
    23:00 +9°C° 0.1 mm 3 mps 751 mmHg 84%

    24 March, Sunday

    Time Temperature Precipitation Wind Pressure Humidity
    00:00 +9°C° 0.1 mm 3 mps 751 mmHg 81%
    01:00 +8°C° 0.1 mm 3 mps 751 mmHg 78%
    02:00 +7°C° 0 mm 3 mps 751 mmHg 73%
    03:00 +7°C° 0 mm 3 mps 751 mmHg 67%
    04:00 +6°C° 0 mm 2 mps 751 mmHg 61%
    05:00 +6°C° 0 mm 2 mps 751 mmHg 62%
    06:00 +5°C° 0 mm 2 mps 751 mmHg 62%
    07:00 +4°C° 0 mm 3 mps 751 mmHg 63%
    08:00 +6°C° 0 mm 2 mps 751 mmHg 57%
    09:00 +7°C° 0 mm 2 mps 751 mmHg 52%
    10:00 +8°C° 0 mm 2 mps 752 mmHg 47%
    11:00 +9°C° 0 mm 2 mps 751 mmHg 44%
    12:00 +9°C° 0 mm 2 mps 751 mmHg 41%
    13:00 +10°C° 0 mm 2 mps 751 mmHg 39%
    14:00 +10°C° 0 mm 2 mps 750 mmHg 38%
    15:00 +10°C° 0 mm 2 mps 750 mmHg 38%
    16:00 +10°C° 0 mm 2 mps 749 mmHg 37%
    17:00 +9°C° 0 mm 2 mps 750 mmHg 42%
    18:00 +7°C° 0 mm 2 mps 750 mmHg 47%
    19:00 +6°C° 0 mm 2 mps 750 mmHg 52%
    20:00 +5°C° 0 mm 2 mps 750 mmHg 55%
    21:00 +6°C° 0 mm 1 mps 750 mmHg 59%
    22:00 +5°C° 0 mm 1 mps 750 mmHg 62%
    23:00 +4°C° 0 mm 1 mps 750 mmHg 64%

    25 March, Monday

    Time Temperature Precipitation Wind Pressure Humidity
    00:00 +4°C° 0 mm 1 mps 750 mmHg 65%
    01:00 +4°C° 0 mm 1 mps 750 mmHg 67%
    02:00 +3°C° 0 mm 2 mps 750 mmHg 67%
    03:00 +3°C° 0 mm 2 mps 750 mmHg 67%
    04:00 +2°C° 0 mm 3 mps 750 mmHg 67%
    05:00 +2°C° 0 mm 3 mps 750 mmHg 69%
    06:00 +1°C° 0 mm 4 mps 749 mmHg 71%
    07:00 +1°C° 0 mm 4 mps 749 mmHg 74%
    08:00 +2°C° 0 mm 5 mps 749 mmHg 68%
    09:00 +3°C° 0 mm 6 mps 749 mmHg 62%
    10:00 +5°C° 0 mm 7 mps 749 mmHg 57%
    11:00 +5°C° 0.1 mm 7 mps 749 mmHg 59%
    12:00 +5°C° 0.1 mm 7 mps 748 mmHg 61%
    13:00 +4°C° 0.1 mm 7 mps 748 mmHg 64%
    14:00 +5°C° 0.1 mm 7 mps 747 mmHg 63%
    15:00 +5°C° 0.1 mm 7 mps 747 mmHg 63%
    16:00 +5°C° 0.1 mm 7 mps 747 mmHg 63%
    17:00 +5°C° 0.2 mm 7 mps 746 mmHg 66%
    18:00 +4°C° 0.2 mm 7 mps 746 mmHg 70%
    19:00 +4°C° 0.2 mm 8 mps 746 mmHg 73%
    20:00 +2°C° 0.1 mm 8 mps 746 mmHg 75%
    21:00 +3°C° 0.1 mm 7 mps 746 mmHg 76%
    22:00 +2°C° 0.1 mm 7 mps 746 mmHg 78%
    23:00 +2°C° 0.3 mm 7 mps 746 mmHg 78%

    26 March, Tuesday

    Time Temperature Precipitation Wind Pressure Humidity
    00:00 +2°C° 0.3 mm 7 mps 746 mmHg 77%
    01:00 +2°C° 0.3 mm 6 mps 746 mmHg 77%
    02:00 +1°C° 0 mm 6 mps 745 mmHg 79%
    03:00 -1°C° 0 mm 6 mps 745 mmHg 80%
    04:00 0°C° 0 mm 5 mps 745 mmHg 81%
    05:00 -1°C° 0 mm 6 mps 745 mmHg 80%
    06:00 -1°C° 0 mm 6 mps 745 mmHg 79%
    07:00 -1°C° 0 mm 6 mps 746 mmHg 77%
    08:00 0°C° 0.1 mm 7 mps 746 mmHg 70%
    09:00 +2°C° 0.1 mm 7 mps 746 mmHg 63%
    10:00 +2°C° 0.1 mm 7 mps 747 mmHg 57%
    11:00 +3°C° 0 mm 7 mps 747 mmHg 50%
    12:00 +4°C° 0 mm 7 mps 747 mmHg 44%
    13:00 +5°C° 0 mm 7 mps 747 mmHg 38%
    14:00 +5°C° 0 mm 7 mps 747 mmHg 40%
    15:00 +5°C° 0 mm 7 mps 748 mmHg 42%
    16:00 +5°C° 0 mm 7 mps 748 mmHg 44%
    17:00 +4°C° 0 mm 6 mps 748 mmHg 48%
    18:00 +3°C° 0 mm 5 mps 749 mmHg 53%
    19:00 +3°C° 0 mm 3 mps 749 mmHg 57%
    20:00 +2°C° 0 mm 3 mps 750 mmHg 61%
    21:00 +2°C° 0 mm 2 mps 750 mmHg 64%
    22:00 +1°C° 0 mm 2 mps 751 mmHg 68%
    23:00 -1°C° 0 mm 2 mps 751 mmHg 71%
    Show more